Location: Corralito
(10.2667°N, 66.9500°W)
Time: 15:55:13
(UTC+00:00)

YAOGAN 1 - Pass Details

Date: 13 December 2023
Orbit: 613 x 615 km, 97.8° (Epoch: 23 February)

Event Time Altitude Azimuth Distance (km) Brightness Sun altitude
Rises 23:10:27 0° 154° (SSE) 2,869 5.9 -15.0°
Reaches altitude 10° 23:12:43 10° 146° (SSE) 1,964 5.0 -15.6°
Maximum altitude 23:16:43 39° 77° (ENE) 918 2.9 -16.5°
Enters shadow 23:19:38 17° 15° (NNE) 1,572 4.3 -17.2°
